Location: Allonne
(49.4086°N, 2.1143°E)
Time: 15:26:02
(UTC+00:00)

DMSP B5D2-2 - Pass Details

Date: 04 August 2024
Orbit: 787 x 802 km, 98.3° (Epoch: 09 September)

Event Time Altitude Azimuth Distance (km) Brightness Sun altitude
Rises 02:34:12 0° 140° (SE) 3,281 7.2 -15.0°
Reaches altitude 10° 02:36:38 10° 132° (SE) 2,353 6.5 -14.7°
Maximum altitude 02:41:25 38° 65° (ENE) 1,186 5.6 -14.2°
Drops below altitude 10° 02:46:12 10° 359° (N) 2,362 7.2 -13.7°
Sets 02:48:39 0° 352° (N) 3,295 7.9 -13.5°
